Location: Valencia
(39.4696°N, 0.3770°W)
Time: 05:19:31
(UTC+02:00)

ISS - Visible Passes

Search period start: 25 May 2015 00:00
Search period end: 04 June 2015 00:00
Orbit: 399 x 404 km, 51.6° (Epoch: 24 May)

Date Brightness Start Highest point End Pass type
(mag) Time Alt. Az. Time Alt. Az. Time Alt. Az.
25 May 0.0 02:27:22 12° NE 02:27:22 12° NE 02:27:36 10° NE visible
25 May -0.4 03:59:57 10° NW 04:01:32 13° NNW 04:03:06 10° NNE visible
25 May 0.0 05:38:25 10° N 05:39:06 10° N 05:39:47 10° NNE visible
26 May -0.5 03:08:17 17° NNW 03:08:17 17° NNW 03:10:14 10° NNE visible
27 May -0.1 02:16:33 14° NNE 02:16:33 14° NNE 02:17:18 10° NNE visible
27 May 0.0 03:51:16 10° NNW 03:51:55 10° N 03:52:33 10° N visible
27 May -0.2 05:27:52 10° NNW 05:29:28 13° NNE 05:31:06 10° NE visible
28 May -0.1 02:57:14 11° NNW 02:58:20 12° NNW 02:59:43 10° NNE visible
28 May 0.1 04:35:02 10° N 04:35:53 11° N 04:36:47 10° NNE visible
29 May -0.2 02:05:09 15° N 02:05:09 15° N 02:06:49 10° NNE visible
29 May -0.3 05:17:21 10° NNW 05:19:42 18° NNE 05:22:06 10° ENE visible
30 May -0.4 01:12:37 17° N 01:12:37 17° N 01:13:51 10° NNE visible
30 May 0.3 02:48:14 10° NNW 02:48:38 10° N 02:49:01 10° N visible
30 May 0.0 04:24:24 10° NNW 04:26:10 14° NNE 04:27:57 10° NE visible
30 May -2.4 05:59:58 10° NW 06:03:10 53° NE 06:06:22 10° ESE visible
30 May -1.8 22:38:46 10° S 22:45:38 - ENE 22:40:16 20° SSE visible
31 May -1.6 00:17:31 33° NW 00:17:48 33° NNW 00:20:49 10° NE visible
31 May 0.2 01:53:45 10° NNW 01:55:00 12° N 01:56:12 10° N visible
31 May 0.2 03:31:31 10° N 03:32:32 11° N 03:33:37 10° NNE visible
31 May -1.2 05:06:51 10° NW 05:09:46 30° NNE 05:12:43 10° E visible
31 May -2.9 23:21:12 10° WSW 23:24:25 62° NW 23:27:39 10° NE visible
01 Jun 0.0 00:59:27 10° NW 01:01:22 14° NNW 01:03:16 10° NNE visible
01 Jun -0.5 04:13:48 10° NNW 04:16:17 20° NNE 04:18:48 10° ENE visible
01 Jun -3.4 05:49:44 10° WNW 05:52:58 64° SW 05:56:11 10° SE visible
01 Jun -3.4 22:27:56 10° SW 22:31:07 64° SE 22:34:21 10° ENE visible
02 Jun -0.5 00:05:18 10° WNW 00:07:48 20° NNW 00:10:16 10° NNE visible
02 Jun 0.0 03:20:49 10° NNW 03:22:43 15° NNE 03:24:39 10° NE visible
02 Jun -2.9 04:56:25 10° NW 04:59:39 62° NE 05:02:53 10° ESE visible
02 Jun -1.2 23:11:22 10° W 23:14:16 30° NNW 23:17:12 10° NE visible
03 Jun 0.3 00:50:28 10° NNW 00:51:30 11° N 00:52:31 10° N visible
03 Jun 0.3 02:27:51 10° N 02:29:04 12° N 02:30:18 10° NNE visible
03 Jun -1.6 04:03:14 10° NW 04:06:15 34° NNE 04:09:16 10° E visible
03 Jun -2.3 05:39:48 10° WNW 05:42:35 25° SW 05:45:19 10° SSE visible
03 Jun -2.4 22:17:39 10° WSW 22:20:50 53° NW 22:24:01 10° NE visible
03 Jun 0.0 23:56:04 10° NW 23:57:50 14° NNW 23:59:34 10° NNE visible
